Weather Roundup
Issued by NWS Corpus Christi, TX

Current Version | Previous Version | Text Only | Print | Product List | Glossary On
Versions: 1 2 3 4 5 6 7 8 9 10 11 12 13 14 15 16 17 18 19 20 21 22 23 24 25 26 27 28 29 30 31 32 33 34 35 36 37 38 39 40 41 42 43 44 45 46 47 48 49 50
000
ASUS44 KCRP 170910
HRRCRP

SOUTH TEXAS REGIONAL WEATHER ROUNDUP
NATIONAL WEATHER SERVICE CORPUS CHRISTI TX
400 AM CDT THU APR 17 2014


TXZ229>244-171000-
...CORPUS CHRISTI AREA OBSERVATIONS...

CITY           SKY/WX    TMP DP  RH WIND       PRES   REMARKS
CORPUS CHRISTI CLOUDY    67  59  75 SE9       29.95F
NAS CORPUS CHR CLOUDY    66  62  87 SE15      29.95S
ROCKPORT       CLOUDY    67  60  78 SE10      29.97S
KINGSVILLE NAS CLOUDY    62  60  93 E5        29.94F
ALICE          CLOUDY    62  58  86 E6        29.94F
FALFURRIAS     CLOUDY    62  59  90 E3        29.93F
$$

...VICTORIA AREA OBSERVATIONS...

CITY           SKY/WX    TMP DP  RH WIND       PRES   REMARKS
VICTORIA       CLOUDY    59  56  89 NE6       30.00S
BEEVILLE       FAIR      61  56  84 E6        29.97S
PLEASANTON     HVY RAIN  60  53  78 E5        29.96F
SAN ANTONIO    CLOUDY    58  52  80 SE7       29.97F
$$

...LAREDO AREA OBSERVATIONS...

CITY           SKY/WX    TMP DP  RH WIND       PRES   REMARKS
LAREDO         CLOUDY    65  54  67 E8        29.94S
COTULLA        CLOUDY    61  54  77 SE9       29.94S
DEL RIO        MOCLDY    61  52  72 SE13      29.89S
MCALLEN        CLOUDY    64  57  78 E7        29.91S
HEBBRONVILLE   CLOUDY    59  56  88 NE3       29.94S
$$

...OTHER TEXAS OBSERVATIONS...

CITY           SKY/WX    TMP DP  RH WIND       PRES   REMARKS
BROWNSVILLE    CLOUDY    63  60  90 E3        29.92F
HOUSTON        CLOUDY    55  53  93 E8        30.06S
COL. STATION   MOCLDY    54  51  90 E9        30.04S
AUSTIN         CLOUDY    55  51  86 SE6       30.00R
WACO           MOCLDY    52  48  86 SE10      30.03R
FORT WORTH     CLEAR     51  43  74 SE8       30.05S
WICHITA FALLS  PTCLDY    51  42  71 SE10      30.01R
LUBBOCK        MOCLDY    52  34  50 VRB3      29.92R
EL PASO        MOCLDY    67   1   7 W20       29.88R
$$

...MARINE OBSERVATIONS...

STATION/POSITION TIME  SKY/WX   TEMP    WIND        PRES    VSBY  WAVE   SWELL
                                AIR SEA DIR/SP/G                  HT/PER HT/PER
                 (UTC)          (F)     (DEG/KT/KT) (MB)    (MI)  (FT/S) (FT/S)
PORT ARANSAS     0900            67 66  120/ 14/ 16 1014.6F
BUOY 90 E PORT A NOT AVBL
BUOY 45 SE BAFFI 0900            66 69  130/ 16/ 19 1013.9F         5/ 5
BUOY 200 E PT IS NOT AVBL
BUOY 15 E GALVES 0900            64 66  110/ 16/ 17 1017.0R         4/ 5
$$


USA.gov is the U.S. government's official web portal to all federal, state and local government web resources and services.